Bay City, TX

7:45 PM CDT on August 18, 2017 (GMT -0500)
Bay City

Weather History for KBYY - April, 2013

Change the Weather History Date:

Friday, April 19, 2013

  Actual Average (KLBX) Record (KLBX)
Temperature  
Mean Temperature 59 °F -  
Max Temperature 69 °F 76 °F 87 °F (2011)
Min Temperature 48 °F 62 °F 42 °F (2013)
Degree Days  
Heating Degree Days 6    
Growing Degree Days 9 (Base 50)    
Moisture  
Dew Point 35 °F    
Average Humidity 44    
Maximum Humidity 70    
Minimum Humidity 20    
Precipitation  
Precipitation 0.00 in - - ()
Sea Level Pressure  
Sea Level Pressure 30.17 in    
Wind  
Wind Speed 16 mph (North)    
Max Wind Speed 22 mph    
Max Gust Speed 32 mph    
Visibility 10 miles    
Events      
Averages and records for this station are not official NWS values.
T = Trace of Precipitation, MM = Missing Value Source: NWS Daily Summary

Daily Weather History Graph

Daily Weather History Graph

Search for Another Location

Airport or City:

Trip Planner

Search our weather history database for the weather conditions in past years. The results will help you decide how hot, cold, wet, or windy it might be!

Date:

Astronomy

Apr. 19, 2013 Rise Set
Actual Time 6:53 AM CDT 7:52 PM CDT
Civil Twilight 6:28 AM CDT 8:16 PM CDT
Nautical Twilight 5:59 AM CDT 8:45 PM CDT
Astronomical Twilight 5:30 AM CDT 9:15 PM CDT
Moon 2:05 PM CDT 2:39 AM CDT
Length of Visible Light 13h 48m
Length of Day
12h 59m
First Quarter, 62% of the Moon is Illuminated
Apr 19
First Quarter
Apr 25
Full
May 2
Last Quarter
May 9
New
May 17
First Quarter

Hourly Weather History & Observations

Time (CDT) Temp. Dew Point Humidity Pressure Visibility Wind Dir Wind Speed Gust Speed Precip Events Conditions
12:15 AM 55.4 °F 45.9 °F 70% 30.03 in 10.0 mi North 17.3 mph 21.9 mph N/A   Clear
12:35 AM 55.6 °F 45.3 °F 68% 30.06 in 10.0 mi North 12.7 mph 21.9 mph N/A   Clear
12:55 AM 55.4 °F 45.0 °F 68% 30.05 in 10.0 mi North 19.6 mph 26.5 mph N/A   Clear
1:15 AM 55.8 °F 43.7 °F 64% 30.05 in 10.0 mi North 21.9 mph 26.5 mph N/A   Clear
1:35 AM 55.8 °F 43.2 °F 63% 30.07 in 10.0 mi North 19.6 mph 26.5 mph N/A   Clear
1:55 AM 55.6 °F 43.0 °F 63% 30.07 in 10.0 mi North 16.1 mph 20.7 mph N/A   Clear
2:15 AM 55.4 °F 42.6 °F 62% 30.09 in 10.0 mi North 13.8 mph 19.6 mph N/A   Clear
2:35 AM 55.0 °F 41.9 °F 61% 30.09 in 10.0 mi North 16.1 mph 19.6 mph N/A   Clear
2:55 AM 54.9 °F 40.8 °F 59% 30.10 in 10.0 mi North 16.1 mph 24.2 mph N/A   Clear
3:15 AM 54.7 °F 40.6 °F 59% 30.11 in 10.0 mi North 19.6 mph 25.3 mph N/A   Clear
3:35 AM 54.5 °F 40.3 °F 59% 30.11 in 10.0 mi North 18.4 mph 28.8 mph N/A   Clear
3:55 AM 54.3 °F 39.6 °F 57% 30.12 in 10.0 mi North 17.3 mph 28.8 mph N/A   Clear
4:15 AM 53.8 °F 39.6 °F 59% 30.13 in 10.0 mi North 13.8 mph 21.9 mph N/A   Clear
4:35 AM 53.4 °F 38.8 °F 58% 30.13 in 10.0 mi North 16.1 mph 23.0 mph N/A   Clear
4:55 AM 52.9 °F 38.7 °F 58% 30.15 in 10.0 mi North 11.5 mph 21.9 mph N/A   Clear
5:15 AM 52.3 °F 38.7 °F 60% 30.15 in 10.0 mi North 15.0 mph 20.7 mph N/A   Clear
5:35 AM 52.0 °F 38.3 °F 60% 30.14 in 10.0 mi North 17.3 mph 21.9 mph N/A   Clear
5:55 AM 51.4 °F 38.1 °F 60% 30.11 in 10.0 mi North 19.6 mph 26.5 mph N/A   Clear
6:15 AM 51.1 °F 37.0 °F 59% 30.14 in 10.0 mi North 17.3 mph 31.1 mph N/A   Clear
6:35 AM 50.9 °F 36.5 °F 58% 30.15 in 10.0 mi North 18.4 mph 23.0 mph N/A   Clear
6:55 AM 50.5 °F 36.3 °F 58% 30.16 in 10.0 mi North 18.4 mph 25.3 mph N/A   Clear
7:15 AM 50.2 °F 35.8 °F 58% 30.17 in 10.0 mi North 18.4 mph 23.0 mph N/A   Clear
7:35 AM 50.4 °F 35.4 °F 57% 30.19 in 10.0 mi North 16.1 mph 24.2 mph N/A   Clear
7:55 AM 50.4 °F 35.4 °F 57% 30.19 in 10.0 mi North 16.1 mph 23.0 mph N/A   Clear
8:15 AM 50.4 °F 35.4 °F 57% 30.20 in 10.0 mi North 18.4 mph 23.0 mph N/A   Clear
8:35 AM 50.7 °F 35.2 °F 55% 30.18 in 10.0 mi North 19.6 mph 26.5 mph N/A   Clear
8:55 AM 51.8 °F 34.9 °F 53% 30.20 in 10.0 mi North 17.3 mph 26.5 mph N/A   Clear
9:15 AM 53.6 °F 34.2 °F 48% 30.19 in 10.0 mi North 21.9 mph 28.8 mph N/A   Clear
9:35 AM 54.5 °F 33.1 °F 44% 30.20 in 10.0 mi North 19.6 mph 26.5 mph N/A   Clear
9:55 AM 55.4 °F 32.4 °F 42% 30.22 in 10.0 mi North 18.4 mph 23.0 mph N/A   Clear
10:15 AM 53.6 °F 32.0 °F 44% 30.22 in 10.0 mi North 21.9 mph 31.1 mph N/A   Clear
10:35 AM 55.9 °F 31.1 °F 39% 30.23 in 10.0 mi North 18.4 mph 32.2 mph N/A   Clear
10:55 AM 56.5 °F 31.3 °F 38% 30.24 in 10.0 mi North 19.6 mph 27.6 mph N/A   Clear
11:15 AM 56.7 °F 31.6 °F 39% 30.25 in 10.0 mi North 18.4 mph 25.3 mph N/A   Clear
11:35 AM 56.7 °F 32.4 °F 40% 30.26 in 10.0 mi North 18.4 mph 24.2 mph N/A   Clear
11:55 AM 56.5 °F 32.2 °F 40% 30.26 in 10.0 mi North 13.8 mph 18.4 mph N/A   Clear
12:15 PM 55.9 °F 33.1 °F 42% 30.27 in 10.0 mi NNW 13.8 mph 18.4 mph N/A   Clear
12:35 PM 55.9 °F 34.2 °F 44% 30.26 in 10.0 mi North 8.1 mph - N/A   Clear
12:55 PM 59.5 °F 35.4 °F 41% 30.26 in 10.0 mi North 10.4 mph 19.6 mph N/A   Clear
1:15 PM 62.6 °F 36.5 °F 38% 30.24 in 10.0 mi NNW 11.5 mph 16.1 mph N/A   Clear
1:35 PM 65.3 °F 36.1 °F 34% 30.23 in 10.0 mi NNW 12.7 mph 18.4 mph N/A   Clear
1:55 PM 66.2 °F 36.5 °F 33% 30.22 in 10.0 mi NNW 16.1 mph 23.0 mph N/A   Clear
2:15 PM 67.5 °F 35.2 °F 30% 30.21 in 10.0 mi NNW 20.7 mph 28.8 mph N/A   Clear
2:35 PM 68.7 °F 34.5 °F 28% 30.21 in 10.0 mi NNW 20.7 mph 25.3 mph N/A   Clear
2:55 PM 68.7 °F 33.6 °F 27% 30.19 in 10.0 mi North 18.4 mph 26.5 mph N/A   Clear
3:15 PM 68.9 °F 33.6 °F 27% 30.19 in 10.0 mi North 17.3 mph 25.3 mph N/A   Clear
3:35 PM 69.6 °F 32.9 °F 26% 30.18 in 10.0 mi North 19.6 mph 29.9 mph N/A   Clear
3:55 PM 69.6 °F 29.7 °F 23% 30.18 in 10.0 mi NNW 20.7 mph 29.9 mph N/A   Clear
4:15 PM 69.3 °F 27.3 °F 21% 30.17 in 10.0 mi NNW 20.7 mph 29.9 mph N/A   Clear
4:35 PM 69.1 °F 26.8 °F 21% 30.16 in 10.0 mi NNW 17.3 mph 27.6 mph N/A   Clear
4:55 PM 69.4 °F 27.1 °F 21% 30.15 in 10.0 mi NNW 19.6 mph 23.0 mph N/A   Clear
5:15 PM 69.4 °F 26.8 °F 20% 30.15 in 10.0 mi North 17.3 mph 26.5 mph N/A   Clear
5:35 PM 68.9 °F 27.3 °F 21% 30.15 in 10.0 mi NNW 19.6 mph 26.5 mph N/A   Clear
5:55 PM 68.5 °F 26.8 °F 21% 30.15 in 10.0 mi NNW 15.0 mph 19.6 mph N/A   Clear
6:15 PM 68.0 °F 26.8 °F 21% 30.15 in 10.0 mi NNW 13.8 mph 19.6 mph N/A   Clear
6:35 PM 67.3 °F 27.7 °F 23% 30.15 in 10.0 mi NNW 16.1 mph 19.6 mph N/A   Clear
6:55 PM 66.4 °F 27.5 °F 23% 30.16 in 10.0 mi NNW 11.5 mph - N/A   Clear
7:15 PM 65.3 °F 28.6 °F 25% 30.16 in 10.0 mi NNW 6.9 mph 16.1 mph N/A   Clear
7:35 PM 63.7 °F 29.5 °F 28% 30.16 in 10.0 mi NNW 8.1 mph - N/A   Clear
7:55 PM 61.3 °F 30.2 °F 31% 30.17 in 10.0 mi NNW 5.8 mph - N/A   Clear
8:15 PM 59.2 °F 30.7 °F 34% 30.17 in 10.0 mi NNW 4.6 mph - N/A   Clear
8:35 PM 57.7 °F 30.7 °F 36% 30.18 in 10.0 mi NNW 4.6 mph - N/A   Clear
8:55 PM 57.0 °F 30.7 °F 37% 30.19 in 10.0 mi NNW 4.6 mph - N/A   Clear
9:15 PM 55.8 °F 31.3 °F 39% 30.20 in 10.0 mi NNW 4.6 mph - N/A   Clear
9:35 PM 55.2 °F 31.3 °F 40% 30.21 in 10.0 mi Calm Calm - N/A   Clear
9:55 PM 54.5 °F 31.5 °F 42% 30.21 in 10.0 mi Calm Calm - N/A   Clear
10:15 PM 53.2 °F 32.4 °F 45% 30.22 in 10.0 mi NW 4.6 mph - N/A   Clear
10:35 PM 52.7 °F 32.0 °F 45% 30.22 in 10.0 mi NNW 3.5 mph - N/A   Clear
10:55 PM 51.6 °F 32.5 °F 48% 30.23 in 10.0 mi Calm Calm - N/A   Clear
11:15 PM 50.7 °F 33.4 °F 52% 30.23 in 10.0 mi Calm Calm - N/A   Clear
11:35 PM 49.5 °F 33.6 °F 54% 30.23 in 10.0 mi Calm Calm - N/A   Clear
11:55 PM 48.2 °F 34.0 °F 58% 30.23 in 10.0 mi North 3.5 mph - N/A   Clear